Starlink 36058

operational
NORAD ID: 66591 Int'l Des: 2025-270 Owner: SPXS Country: US Constellation: starlink
LEOCIRCULAR

Über Starlink 36058

Beschreibung wird geladen...

Live-Position

3D-Globus wird geladen...

Nächste Überflüge

Höhenverlauf

Altitude vs Time

uPlot chart will show altitude changes over time

Zweizeiliger Elementsatz

1 66591U 25270D 26062.14088579 .00022944 00000-0 84056-3 0 9998
2 66591 43.0004 93.2192 0001218 198.0868 161.9941 15.27585481 16709
Epoch: 3. März 2026 • Age: 20 hours

Aktueller Status

Höhe 485.2 km
Geschwindigkeit 7.62 km/s
Subsatellitenpunkt -15.75°S, 174.17°W
Startdatum 22. Nov. 2025
Alter 0.2 years
Typ internet

Technische Details

Klassifizierung Payload
Masse 575.00 kg
Trockenmasse 530.00 kg
Gesamtmasse 575.00 kg
Länge 0.30 m
Durchmesser 4.10 m
Spannweite 29.00 m
Form Box + pan
Hersteller SPXS
Bus-Typ Starlink V2MO
Phasenstatus In Orbit
Besitzer/Staat SPXS/US

Große Konstellationen

Loading constellations...